Tracking 19149 objects as of 21-Apr-2018
HD Live streaming from Space Station
objects crossing your sky now

OSCAR 27

Track OSCAR 27 now!
10-day predictions
OSCAR 27 is classified as:


NORAD ID: 18361
Int'l Code: 1987-080A
Perigee: 1,022.9 km
Apogee: 1,176.9 km
Inclination: 90.3 °
Period: 107.1 minutes
Semi major axis: 7470 km
RCS: 1.5699 m2 (large)
Launch date: September 16, 1987
Source: United States (US)
Launch site: AIR FORCE WESTERN TEST RANGE (AFWTR)
aabbcc
Your satellite tracking list
Your tracking list is empty




NASA's NSSDC Master Catalog

Two Line Element Set (TLE):
1 18361U 87080A   18110.80240763 +.00000016 +00000-0 +15279-4 0  9998
2 18361 090.3265 345.6199 0103084 300.8752 058.2289 13.44452866500253
Source of the keplerian elements: AFSPC